KB3KAV Weather Reports


time (UTC)temp
C
wind
direction
speed
KPH
gust
KPH
rain 1hr
cm
rain 24hr
cm
rain mn
cm
humidity
%
barometer
mb
20260506102438 11 95 1.6 1.6 0.00 0.00 0.00 91 1035.8
20260506101437 11 93 1.6 1.6 0.00 0.00 0.00 90 1035.4
20260506100433 11 85 1.6 1.6 0.00 0.00 0.00 90 1035.7
20260506095429 11 78 0.0 1.6 0.00 0.00 0.00 91 1035.9
20260506094430 11 92 0.0 0.0 0.00 0.00 0.00 90 1035.8
20260506093424 11 93 0.0 0.0 0.00 0.00 0.00 90 1036.0
20260506092420 11 79 1.6 1.6 0.00 0.00 0.00 90 1036.0
20260506091420 11 88 3.2 3.2 0.00 0.00 0.00 90 1035.9
20260506090415 11 86 0.0 0.0 0.00 0.00 0.00 90 1036.0
20260506085414 11 86 0.0 0.0 0.00 0.00 0.00 90 1036.0
20260506084413 11 85 1.6 1.6 0.00 0.00 0.00 90 1035.9
20260506083413 11 98 0.0 0.0 0.00 0.00 0.00 90 1036.0
20260506082413 11 90 0.0 0.0 0.00 0.00 0.00 90 1036.2
20260506081413 11 80 0.0 0.0 0.00 0.00 0.00 90 1036.2
20260506080412 11 92 0.0 0.0 0.00 0.00 0.00 90 1036.2
20260506073402 11 97 0.0 0.0 0.00 0.00 0.00 90 1036.0
20260506072402 11 97 1.6 1.6 0.00 0.00 0.00 90 1036.2
20260506071358 11 96 0.0 0.0 0.00 0.00 0.00 90 1036.1
20260506070357 11 90 0.0 0.0 0.00 0.00 0.00 90 1036.3
20260506062340 11 98 0.0 0.0 0.00 0.00 0.00 91 1036.6
20260506061339 10 101 0.0 1.6 0.00 0.00 0.00 91 1037.0
20260506060335 10 81 1.6 1.6 0.00 0.00 0.00 92 1036.7
20260506051324 10 80 1.6 1.6 0.00 0.00 0.00 91 1037.5
20260506050319 10 80 1.6 1.6 0.00 0.00 0.00 91 1037.3
20260506044313 11 82 0.0 0.0 0.00 0.00 0.00 91 1037.5
20260506043313 11 88 0.0 0.0 0.00 0.00 0.00 91 1037.2
20260506042310 11 88 0.0 0.0 0.00 0.00 0.00 90 1037.1
20260506041311 11 88 0.0 0.0 0.00 0.00 0.00 90 1037.4
20260506040305 11 88 0.0 0.0 0.00 0.00 0.00 90 1037.6
20260506035306 11 88 0.0 0.0 0.00 0.00 0.00 89 1037.3
20260506034259 11 88 0.0 0.0 0.00 0.00 0.00 89 1037.6
20260506033259 11 88 0.0 0.0 0.00 0.00 0.00 88 1037.6
20260506032258 12 88 0.0 0.0 0.00 0.00 0.00 88 1037.7
20260506031258 12 88 0.0 0.0 0.00 0.00 0.00 88 1037.5
20260506030254 12 88 0.0 0.0 0.00 0.00 0.00 87 1037.4
20260506025253 12 88 0.0 0.0 0.00 0.00 0.00 86 1037.4
20260506024252 13 87 0.0 0.0 0.00 0.00 0.00 85 1037.4
20260506023251 13 87 0.0 0.0 0.00 0.00 0.00 85 1037.4
20260506022246 13 86 0.0 0.0 0.00 0.00 0.00 84 1037.3
20260506021246 13 87 0.0 0.0 0.00 0.00 0.00 83 1037.3
20260506020246 14 87 0.0 0.0 0.00 0.00 0.00 82 1037.3
20260506015241 15 87 0.0 0.0 0.00 0.00 0.00 81 1037.5
20260506014240 15 87 0.0 0.0 0.00 0.00 0.00 80 1037.3
20260506013240 15 87 0.0 0.0 0.00 0.00 0.00 78 1037.2
20260506012239 16 87 0.0 0.0 0.00 0.00 0.00 78 1037.2
20260506011238 16 86 0.0 0.0 0.00 0.00 0.00 75 1036.9
20260506010233 16 86 0.0 0.0 0.00 0.00 0.00 75 1036.7
20260506005233 16 87 0.0 0.0 0.00 0.00 0.00 73 1036.8
20260506004233 17 86 0.0 0.0 0.00 0.00 0.00 72 1036.5
20260506003231 17 83 0.0 0.0 0.00 0.00 0.00 71 1036.5
20260506002229 17 93 0.0 0.0 0.00 0.00 0.00 69 1036.5
20260506001229 18 92 0.0 0.0 0.00 0.00 0.00 68 1036.5
20260506000223 19 91 0.0 0.0 0.00 0.00 0.00 64 1036.3
20260505235224 20 88 0.0 0.0 0.00 0.00 0.00 61 1036.1
20260505234223 20 87 1.6 1.6 0.00 0.00 0.00 58 1036.1
20260505233218 20 67 1.6 3.2 0.00 0.00 0.00 58 1035.8
20260505232218 21 79 1.6 1.6 0.00 0.00 0.00 55 1035.8
20260505231214 21 86 0.0 0.0 0.00 0.00 0.00 49 1035.9
20260505230213 22 93 3.2 3.2 0.00 0.00 0.00 45 1035.9
20260505225213 23 102 0.0 1.6 0.00 0.00 0.00 43 1035.6
20260505224212 23 57 1.6 1.6 0.00 0.00 0.00 40 1035.6
20260505223211 24 229 8.0 9.7 0.00 0.00 0.00 39 1035.7
20260505222209 24 118 3.2 3.2 0.00 0.00 0.00 41 1035.4
20260505221209 24 143 3.2 3.2 0.00 0.00 0.00 39 1035.4
20260505220210 24 86 1.6 1.6 0.00 0.00 0.00 39 1035.3
20260505215205 24 33 3.2 3.2 0.00 0.00 0.00 40 1035.1
20260505214206 24 88 1.6 1.6 0.00 0.00 0.00 38 1035.3
20260505213200 24 113 0.0 1.6 0.00 0.00 0.00 40 1035.4
20260505212159 24 358 6.4 9.7 0.00 0.00 0.00 40 1035.2
20260505211159 24 306 4.8 8.0 0.00 0.00 0.00 37 1035.3
20260505210159 25 61 6.4 8.0 0.00 0.00 0.00 36 1035.4
20260505205154 25 282 4.8 8.0 0.00 0.00 0.00 35 1035.1
20260505204154 25 350 4.8 9.7 0.00 0.00 0.00 35 1035.1
20260505203154 25 44 4.8 4.8 0.00 0.00 0.00 36 1035.0
20260505202152 25 8 14.5 17.7 0.00 0.00 0.00 35 1035.0
20260505201152 25 19 8.0 11.3 0.00 0.00 0.00 34 1035.3
20260505200153 25 3 9.7 12.9 0.00 0.00 0.00 34 1034.9
20260505195152 26 70 9.7 16.1 0.00 0.00 0.00 34 1035.4
20260505194151 26 49 4.8 8.0 0.00 0.00 0.00 34 1035.0
20260505193150 26 164 4.8 4.8 0.00 0.00 0.00 36 1035.3
20260505192146 26 346 17.7 27.4 0.00 0.00 0.00 34 1035.3
20260505191142 26 335 12.9 22.5 0.00 0.00 0.00 36 1035.4
20260505190138 26 135 4.8 8.0 0.00 0.00 0.00 36 1035.6
20260505185137 26 297 14.5 16.1 0.00 0.00 0.00 37 1035.9
20260505184136 26 12 14.5 17.7 0.00 0.00 0.00 37 1036.1
20260505183131 25 24 8.0 12.9 0.00 0.00 0.00 37 1036.1
20260505182129 26 272 12.9 16.1 0.00 0.00 0.00 38 1036.2
20260505181129 26 307 8.0 11.3 0.00 0.00 0.00 39 1036.2
20260505180129 25 331 9.7 12.9 0.00 0.00 0.00 38 1036.2
20260505175127 26 354 19.3 27.4 0.00 0.00 0.00 38 1036.7
20260505174126 26 185 6.4 8.0 0.00 0.00 0.00 39 1036.5
20260505173125 25 331 19.3 27.4 0.00 0.00 0.00 39 1036.8
20260505172120 25 319 17.7 20.9 0.00 0.00 0.00 40 1036.4
20260505171118 25 33 11.3 12.9 0.00 0.00 0.00 40 1036.4
20260505170117 25 289 14.5 17.7 0.00 0.00 0.00 41 1036.9
20260505165114 25 342 20.9 27.4 0.00 0.00 0.00 42 1036.8
20260505164113 24 202 14.5 17.7 0.00 0.00 0.00 43 1037.0
20260505163108 24 355 8.0 9.7 0.00 0.00 0.00 43 1037.0
20260505162103 25 302 12.9 14.5 0.00 0.00 0.00 43 1037.1
20260505161103 24 323 8.0 9.7 0.00 0.00 0.00 47 1037.4
20260505160104 24 40 4.8 4.8 0.00 0.00 0.00 44 1037.5
20260505153100 23 111 11.3 14.5 0.00 0.00 0.00 44 1037.7
20260505152058 23 274 6.4 8.0 0.00 0.00 0.00 45 1037.6
20260505151057 23 295 8.0 11.3 0.00 0.00 0.00 45 1037.7
20260505125036 17 110 1.6 1.6 0.00 0.00 0.00 73 1038.7
20260505124034 16 100 0.0 1.6 0.00 0.00 0.00 74 1038.7
20260505123032 15 103 1.6 1.6 0.00 0.00 0.00 77 1038.9
20260505122032 14 104 0.0 0.0 0.00 0.00 0.00 81 1038.7
20260505121031 13 102 0.0 1.6 0.00 0.00 0.00 83 1039.0
20260505120029 13 102 1.6 1.6 0.00 0.00 0.00 81 1039.0
20260505115028 12 100 0.0 0.0 0.00 0.00 0.00 86 1038.8
20260505114027 12 101 1.6 1.6 0.00 0.00 0.00 85 1039.0
20260505113026 10 100 1.6 1.6 0.00 0.00 0.00 90 1038.8
20260505112020 10 91 0.0 0.0 0.00 0.00 0.00 94 1038.9
20260505111016 9 91 0.0 0.0 0.00 0.00 0.00 94 1038.6